Location: Hertford
(51.8000°N, 0.0667°W)
Time: 14:24:00
(UTC+00:00)

MOS 1 Rocket - Pass Details

Date: 18 September 2020
Orbit: 614 x 831 km, 97.4° (Epoch: 27 October)

Event Time Altitude Azimuth Distance (km) Brightness Sun altitude
Rises 18:56:12 0° 16° (NNE) 3,051 6.6 -8.4°
Reaches altitude 10° 18:58:34 10° 22° (NNE) 2,100 5.7 -8.7°
Maximum altitude 19:03:01 52° 99° (E) 805 3.3 -9.4°
Drops below altitude 10° 19:07:14 10° 176° (S) 1,995 5.5 -10.0°
Sets 19:09:26 0° 181° (S) 2,883 6.3 -10.3°
